THORAD AGENA D DEB, 4717

Orbit data source: Space-Track

THORAD AGENA D DEB, 4717 is space debris in SSO originally from a launch on Wed, 08 Apr 1970 UTC launched from the Air Force Western Test Range (AFWTR). Debris objects in space refer to the collection of defunct objects orbiting the Earth. Examples of debris include non-operational satellites, rocket bodies, and fragments generated from explosions, collisions, or faulty payload assembly.

Loading next visibility...
Identifier
4717, 1970-025CB
Orbit
SSO
Country
Flag of USUS
Related business
Manufacturer
Unknown
Mission
Spacecraft
Bus & Motor
Unknown
Mass
Unknown
Launch date (UTC)
1970-04-08 (56 years ago)
Launch vehicle
Unknown
Launch site
Air Force Western Test Range (AFWTR)
Object type
Payload
Rocket body
Debris
Shape & HBR
Unknown shape, 0.1 m
Radar Cross Section
Medium (>0.1 m² and <1 m²)

Expand to show TLE details & history
Last TLE update: 23 hours ago

TLE from 23 hours ago
0 THORAD AGENA D DEB
1 04717U 70025CB  26236.49018454  .00000034  00000-0  11740-3 0  9990
2 04717 100.0047 312.1054 0003429  77.8118 296.1621 13.54935120782668
Epoch: 2026-08-24T11:45Z
TLE epoch observation values (Epoch: 2026-08-24T11:45:51.944Z)
Latitude
13.69195°
Longitude
160.41729°
Altitude
1,055.079 km
Speed
7.326 km/s
True Right ascension
20h 38m 37s
True Declination
13° 36' 58"
Sunlit
Object was in full shadow at epoch
Visualization orbit readout
Latitude
Unknown
Longitude
Unknown
Altitude
Unknown
Speed
Unknown
Apparent Right ascension
Unknown
Apparent Declination
Unknown
Sunlit
N/A
Visualization observer readout
Local Sidereal Time
02:29:16
Azimuth
Unknown
Elevation
Unknown
Doppler factor
Unknown
Orbital elements
Apogee altitude
1,054.015 km
Perigee altitude
1,048.919 km
Semi-major axis
7,429.604 km
Eccentricity
0.00034
Inclination
100.0047°
RAAN
312.1054°
Arg. of periapsis
77.8118°
True anomaly
296.12683°
Mean anomaly
296.1621°
Eccentric anomaly
296.14446°
Mean motion
3.38918 °/min
Orbital period
106.22 mins
BSTAR
0.0001174
Loading maneuver chart data...
Computing Atmospheric mass density...

Documentation

Showing up to 5 results
|